APSTAR 6

Last updated on Mon Jan 25 2021 10:33:59 GMT+0000 (Coordinated Universal Time)

1 28638U 05012A 21024.82660274 -.00000081 00000-0 00000-0 0 9999 2 28638 2.3405 91.5780 0011885 245.0535 284.7259 0.98572495 82624
UTC large
Height (km)
Speed (km/s)
/
Latitude / Longitude
Inclination (degrees)
Orbital Period (minutes)
Azimuth
Elevation
Range (km)
Doppler Factor

Next 0 passes for location: London (51.5072 / 0.1276)

Sorry there are no passes over London.
APSTAR 6